Location: Arrodets-la-Barthe
(43.0306°N, 0.2829°E)
Time: 12:25:47
(UTC+00:00)

Cosmos 1844 - Pass Details

Date: 24 October 2021
Orbit: 822 x 868 km, 70.9° (Epoch: 07 December)

Event Time Altitude Azimuth Distance (km) Brightness Sun altitude
Rises 18:12:57 0° 341° (NNW) 3,460 7.1 -13.6°
Reaches altitude 10° 18:15:38 10° 349° (N) 2,517 6.3 -14.1°
Maximum altitude 18:20:58 37° 56° (NE) 1,323 4.3 -15.1°
Enters shadow 18:24:03 22° 109° (ESE) 1,809 4.9 -15.6°
